Portada
METAR-TAF:

METAR-TAF

Aeroports :

Budjnurd, Iran

latitud: 37-28N, longitud: 057-20E, altitud: 1074 m

Observació

L'informe es va fer fa 38 minuts, a les 08:00 UTC
Vent calma
Temperatura 14°C
Humitat 24%
Pressió 1026 hPa
Visibilitat 10 km o més
sense núvols per sota de 1500 mi sense presència de cumulonimbus.

METAR: OIMN 120800Z 00000KT CAVOK 14/M06 Q1026

Hora: 12:08 (08:38 UTC)


TAF: manca

Observacions i pronòstics meteorològics de més de 4000 aeroports (METAR i TAF).

Les estacions disponibles són els punts grocs i vermells al mapa.

Posi el ratolí al punt desitjat per veure el nom de l'estació.

Feu clic per veure les observacions i els pronòstics meteorològics.

Per canviar el mapa: feu clic els botons verds amb una creu de color negre per apropar; al botó verd amb un guió per allunyar la imatge; o en les fletxes verdes per a mapes adjacents.


METAR-TAF: